User: anonymous   Login
Location: Enborne
(51.3833°N, 1.3667°W)
Time: 12:03:02
(UTC+00:00)
Language:

USA 186 - Orbit

View from above orbital plane
View from above orbital plane
View from above satellite
View from above satellite

Ground track
Ground track

The orbit data is extracted from the following two-line orbital elements,

1 28888U 05042A   21165.10645529 0.00025000  00000-0  11329-3 0    01
2 28888  96.8901 203.5552 0139241 324.2035  35.7963 15.70666048    06
Epoch (UTC): 14 June 2021 02:33:17
Eccentricity: 0.0139241
inclination: 96.8901°
perigee height: 263 km
apogee height: 451 km
right ascension of ascending node: 203.5552°
argument of perigee: 324.2035°
revolutions per day: 15.70666048
mean anomaly at epoch: 35.7963°
orbit number at epoch: 0

The dashed part of the orbit path shows where the satellite is in the earth's shadow,  

DLR